Regional Weather Roundup
Issued by NWS Kansas City/Pleasant Hill, MO

Home | Current Version | Previous Version | Text Only | Print | Product List | Glossary On
Versions: 1 2 3 4 5 6 7 8 9 10 11 12 13 14 15 16 17 18 19 20 21 22 23 24 25 26 27 28 29 30 31 32 33 34 35 36 37 38 39 40 41 42 43 44 45 46 47 48 49 50
000
ASUS43 KEAX 220511
RWREAX

WEATHER ROUNDUP FOR EASTERN KANSAS AND NORTHWEST MISSOURI
NATIONAL WEATHER SERVICE KANSAS CITY/PLEASANT HILL MO
1100 PM CST SUN DEC 21 2014

KSZ040-057-103>105-MOZ028-029-037-043-220600-
...KANSAS CITY METROPOLITAN AREA...

CITY           SKY/WX    TMP DP  RH WIND       PRES   REMARKS
K.C. INTL      CLOUDY    43  38  82 S16       29.75F
K.C. DOWNTOWN  CLOUDY    45  37  73 S10G21    29.77F
LEES SUMMIT    CLOUDY    42  37  82 SE10G20   29.78F
OLATHE - IXD   CLOUDY    43  39  86 SE14      29.76F
OLATHE - OJC   CLOUDY    42  38  85 S12G21    29.75F
LAWRENCE       CLOUDY    44  39  82 SE14      29.74F

$$

MOZ001>008-011>017-020>025-030>033-038>040-044>046-053-054-220600-
...NORTHERN AND CENTRAL MISSOURI...

CITY           SKY/WX    TMP DP  RH WIND       PRES   REMARKS
ST. JOSEPH     CLOUDY    44  40  85 S13       29.75S
MOSBY          CLOUDY    43  37  81 SE7       29.78F
WARRENSBURG    CLOUDY    41  36  81 SE10      29.81R WCI  35
WHITEMAN AFB   CLOUDY    42  36  78 S8        29.81R
CLINTON        CLOUDY    45  37  76 SE12      29.82S
SEDALIA        CLOUDY    43  35  73 SE13      29.83F
WARSAW         NOT AVBL
MARSHALL       CLOUDY    45  39  81 SE10      29.83F
CHILLICOTHE      N/A     43  37  79 S9        29.82S
MOBERLY        CLOUDY    41  34  75 SE12      29.86F WCI  34
KIRKSVILLE     CLOUDY    40  37  89 SE14      29.84F WCI  32

$$

MOZ041-047>049-056>058-063>065-088>090-097-220600-
...EASTERN AND SOUTHERN MISSOURI...

CITY           SKY/WX    TMP DP  RH WIND       PRES   REMARKS
ST. LOUIS INTL CLOUDY    44  31  60 SE10      29.95F
SPIRIT OF STL  CLOUDY    43  32  65 SE5       29.93F
COLUMBIA       CLOUDY    41  34  76 SE13      29.86F WCI  34
JEFFERSON CITY CLOUDY    42  34  73 SE8       29.88F
ROLLA          CLOUDY    39  32  76 SE10      29.86F WCI  32
LEBANON        MOCLDY    41  36  81 S13       29.84F WCI  34
OSAGE BEACH    CLOUDY    43  34  70 SE10      29.85F
SPRINGFIELD    CLOUDY    43  36  76 SE15      29.82S
BRANSON        CLOUDY    43  37  81 SE9       29.84S
NEVADA         CLOUDY    43  37  81 SE12      29.80S
JOPLIN         CLOUDY    45  39  79 S10       29.79F
WEST PLAINS    CLOUDY    40  33  76 SE7       29.89F

$$

IAZ060-094-KSZ022-034>040-054-083-096-NEZ052-066-093-220600-
...KANSAS...SOUTHEAST NEBRASKA AND IOWA...

CITY           SKY/WX    TMP DP  RH WIND       PRES   REMARKS
TOPEKA         CLOUDY    46  41  82 S9        29.73S
MANHATTAN      CLOUDY    44  43  96 S15G25    29.67F
EMPORIA        CLOUDY    43  41  93 S18       29.69F WCI  35
CHANUTE        CLOUDY    44  40  85 S16       29.75F
WICHITA        CLOUDY    45  42  89 S17G24    29.65F FOG
OMAHA          DRIZZLE   43  41  93 S18       29.66F WCI  35
LINCOLN        LGT RAIN  43  41  93 S14       29.63F FOG
FALLS CITY     CLOUDY    44  41  89 S14       29.70S FOG
LAMONI         LGT RAIN  41  39  93 S13G22    29.76F WCI  34
DES MOINES     CLOUDY    43  39  86 S17       29.76F

$$




USA.gov is the U.S. government's official web portal to all federal, state and local government web resources and services.